Location: Votelez
(50.0000°N, 15.0000°E)
Time: 22:13:36
(UTC+01:00)

ARIANE 6 FM1 Upper Stage - Pass Details

Date: 22 February 2026
Orbit: 523 x 607 km, 62.0° (Epoch: 13 March)

Event Time Altitude Azimuth Distance (km) Brightness Sun altitude
Rises 18:38:01 0° 301° (WNW) 2,659 7.2 -11.6°
Reaches altitude 10° 18:40:55 10° 279° (W) 1,767 6.7 -12.0°
Maximum altitude 18:43:15 15° 242° (WSW) 1,466 5.8 -12.4°
Drops below altitude 10° 18:45:34 10° 206° (SSW) 1,770 5.6 -12.8°
Sets 18:48:30 0° 183° (S) 2,666 6.2 -13.3°
